Wind_Speed
32 32 32 32 33 34 35 35 34 34 34 34 34 33 31 32 32 32 31 31 30 29 28 28 29 29 29 29 29 28 28 28 28 29 30 31 32 33 34 36 36 36 36 37
32 33 33 33 34 35 35 36 35 35 35 36 35 34 33 32 33 32 32 32 31 30 29 30 30 30 30 29 29 29 29 29 29 29 30 31 32 33 34 35 35 36 36 36
33 33 33 34 35 36 36 36 36 37 36 37 37 36 34 33 33 33 32 32 31 31 29 30 31 31 31 30 30 30 30 30 30 29 30 31 31 33 34 34 35 35 35 35
33 32 33 34 35 36 37 37 38 38 37 37 36 37 34 33 33 33 32 32 32 32 31 31 31 31 31 31 30 30 31 31 31 31 30 30 31 31 32 33 34 34 34 34
33 33 33 34 34 36 37 37 38 38 38 37 36 37 34 34 34 33 33 32 32 32 31 31 31 31 31 31 31 31 31 32 32 31 32 31 31 31 32 33 33 33 34 34
33 33 33 34 34 34 35 35 36 36 36 37 35 36 36 34 34 34 33 32 32 32 32 31 31 31 30 30 31 31 31 31 32 32 32 32 32 33 33 33 33 33 34 34
32 32 32 33 33 33 33 33 34 35 35 36 34 36 36 35 34 34 34 33 33 32 32 32 32 32 31 31 30 31 31 31 31 32 33 33 33 33 34 34 34 34 34 35
33 32 32 32 32 32 32 32 33 34 36 36 35 36 35 34 35 34 34 35 35 34 33 33 33 33 33 32 31 31 30 30 31 32 33 33 34 34 35 35 35 35 35 35
34 33 32 32 32 32 32 31 32 33 35 35 35 36 35 34 34 34 34 35 35 35 34 34 34 34 33 33 32 32 31 31 31 32 32 33 33 34 35 35 35 35 36 36
34 34 31 31 31 32 32 31 31 31 33 34 34 34 34 33 33 33 34 34 35 35 35 35 35 35 35 35 34 34 33 33 33 33 33 33 34 35 35 35 36 36 37 37
33 34 32 31 30 30 31 31 31 32 34 34 35 33 32 33 33 33 33 34 35 36 36 36 36 36 37 37 36 35 35 34 34 34 35 34 34 35 36 36 36 36 37 37
32 32 31 30 31 31 31 31 32 33 34 35 37 36 34 34 35 35 35 35 35 36 37 37 37 37 38 38 37 37 36 36 36 36 36 36 35 35 36 36 36 37 37 38
32 32 31 30 30 31 32 32 33 34 35 36 37 36 34 35 35 36 36 36 37 37 38 38 38 38 39 39 38 38 37 37 37 37 37 37 37 37 37 37 37 37 37 37
32 32 31 31 30 32 33 32 33 35 35 37 37 37 36 36 36 36 37 38 38 39 39 40 40 40 40 40 40 39 38 38 38 38 37 37 37 37 38 38 38 38 37 38
32 32 31 31 31 32 33 33 34 36 36 37 36 36 36 38 38 38 38 38 38 39 39 39 40 40 40 40 40 40 39 39 39 38 38 38 38 38 38 38 38 38 38 38
32 32 31 30 31 32 33 33 34 35 36 37 38 38 36 37 38 38 39 38 38 38 38 39 40 40 39 40 40 40 40 40 39 39 39 39 39 38 38 38 38 39 39 38
32 32 32 30 30 32 32 31 32 34 35 36 38 38 37 37 37 37 37 37 37 38 39 40 40 40 40 39 39 40 40 40 39 39 39 39 39 39 38 38 38 38 38 38
31 31 31 31 30 30 29 30 31 32 33 34 35 36 36 37 36 36 37 37 37 38 38 39 39 39 38 38 38 39 39 39 39 39 39 39 38 38 38 38 37 37 37 37
31 31 31 31 30 29 27 27 27 29 30 32 33 34 35 35 35 35 36 36 37 37 37 37 38 38 38 38 38 38 38 38 38 38 38 38 38 38 37 37 36 36 36 36
31 31 30 30 30 29 27 26 27 28 29 30 32 33 35 36 36 36 36 36 36 37 37 38 38 38 38 38 38 38 38 38 38 38 37 37 37 37 37 36 35 35 35 35
30 29 29 29 30 29 26 26 26 27 28 29 30 32 33 35 35 35 36 36 35 35 35 36 37 37 37 37 37 37 38 38 38 37 37 37 36 36 36 36 35 35 34 34
27 27 26 26 27 25 24 24 25 26 26 27 28 30 31 31 32 33 34 34 33 33 33 34 35 35 36 36 37 36 37 37 37 37 37 37 36 36 35 35 35 34 34 34
25 25 25 25 25 24 25 26 26 27 28 27 28 28 29 30 31 31 33 34 34 34 33 34 34 33 33 34 35 35 34 35 36 36 36 36 36 35 34 34 33 33 32 33
24 25 25 24 24 24 25 26 27 28 29 29 29 29 29 31 32 32 32 33 34 34 33 33 33 33 33 33 33 34 33 33 33 34 34 34 34 34 33 33 33 33 33 33
25 25 25 25 25 25 25 26 26 27 27 28 29 29 30 32 32 32 32 32 33 33 33 33 32 31 31 31 32 32 32 32 31 31 31 32 32 31 32 31 32 32 32 32
25 25 25 25 26 26 26 26 27 27 27 27 29 30 30 31 31 31 31 31 31 31 31 31 31 30 29 29 30 30 30 31 31 30 29 29 29 29 29 29 29 29 29 29
Wind_Direction
274 272 272 271 270 270 269 268 267 266 264 263 261 258 256 257 257 257 257 257 257 258 258 258 258 257 258 259 259 258 257 257 257 255 255 254 253 253 253 252 252 252 251 252
274 274 273 270 269 268 267 267 266 265 264 264 261 259 257 256 256 256 257 257 257 258 257 257 257 258 259 258 259 259 259 259 257 257 254 253 253 253 253 253 253 252 252 252
276 275 272 270 268 268 267 267 266 266 265 264 262 258 255 255 256 255 255 255 255 256 257 257 257 258 259 259 259 258 259 259 258 257 255 254 255 254 253 253 253 252 253 253
277 274 272 270 268 268 267 267 266 265 264 263 261 260 254 254 254 253 253 253 253 255 255 256 257 258 259 259 258 257 258 259 260 258 257 255 255 255 254 253 254 253 253 254
278 274 273 270 269 268 268 268 267 265 263 261 259 260 255 254 253 252 252 252 252 254 254 255 256 257 258 258 258 258 258 258 259 258 258 256 255 255 255 256 255 254 254 255
279 275 274 272 270 270 269 268 268 266 263 260 258 260 257 255 253 252 252 252 251 252 253 254 255 256 256 257 257 256 256 257 257 257 257 256 256 256 256 257 256 255 256 256
279 276 275 274 272 270 269 268 269 266 262 261 259 260 259 257 255 253 252 251 251 251 252 253 254 255 256 257 257 257 256 256 257 256 256 256 256 256 257 257 257 257 257 257
280 276 275 274 272 270 269 267 267 267 266 263 261 260 259 258 257 256 254 252 251 252 252 253 254 255 255 256 256 257 257 257 257 256 255 256 255 256 257 258 257 258 259 259
283 279 276 273 272 270 268 266 265 266 266 265 264 262 260 259 257 255 254 253 252 253 252 253 254 255 255 255 256 257 257 257 257 256 255 255 255 255 257 258 258 257 258 258
286 282 278 272 270 269 267 265 262 262 265 264 264 264 264 260 258 256 254 253 252 253 253 253 254 255 255 255 255 257 258 258 258 256 256 256 256 256 256 256 256 256 257 257
289 285 280 273 269 269 266 261 258 258 260 262 263 263 263 261 258 256 254 253 253 253 253 253 255 256 255 255 255 256 257 259 258 256 256 257 258 258 258 257 256 256 257 258
291 287 282 277 270 268 266 261 258 257 258 260 261 261 260 260 259 257 256 254 253 253 253 253 253 255 256 256 256 256 257 258 258 257 257 257 259 259 260 260 259 257 257 258
291 289 285 279 273 268 267 264 260 258 258 259 258 259 259 259 258 257 255 253 253 253 252 252 253 255 256 256 256 257 258 258 258 258 258 258 259 259 260 261 261 260 260 260
290 288 285 282 277 271 268 266 261 258 258 258 257 256 254 255 256 255 256 255 254 254 253 253 253 254 255 256 256 257 257 259 259 258 258 259 259 260 260 261 261 261 261 261
290 288 285 281 277 273 270 266 262 260 259 258 256 255 254 253 253 254 256 257 257 255 254 254 255 255 256 256 256 256 257 259 259 259 259 259 259 260 260 261 262 262 262 262
289 287 285 282 279 275 271 268 266 263 261 259 257 255 255 255 255 255 256 257 256 255 254 254 256 256 256 256 256 256 257 257 257 258 259 259 259 259 259 261 262 262 262 262
288 286 285 283 280 277 274 273 268 266 263 262 259 257 255 256 255 256 255 256 257 256 255 255 255 256 255 255 255 255 256 256 256 257 258 259 259 259 260 261 262 261 262 261
289 286 285 283 280 277 278 274 270 266 264 263 261 259 257 257 254 255 255 256 256 257 256 256 256 257 257 256 255 255 255 256 256 256 257 259 259 260 261 261 261 261 261 261
287 286 285 284 282 280 277 276 272 266 264 264 263 260 260 259 257 256 256 256 256 257 256 256 257 257 257 257 255 255 255 255 256 256 257 258 259 260 261 261 260 261 261 261
285 284 283 282 281 281 278 275 272 269 267 265 264 262 261 260 259 259 259 258 258 259 258 257 257 257 258 257 256 256 256 256 257 257 257 259 259 259 259 260 261 261 261 261
285 283 281 279 278 278 278 276 273 270 269 267 265 264 264 263 263 261 260 259 260 261 261 261 259 258 257 257 256 255 256 257 257 257 258 258 258 258 259 260 261 261 261 260
288 285 282 280 278 277 277 274 272 272 271 269 267 266 266 264 262 260 259 259 259 261 262 263 262 261 259 257 256 256 255 255 255 255 256 257 257 257 258 260 261 261 260 259
287 287 285 281 281 280 277 276 275 273 272 271 269 268 267 265 264 263 260 259 259 260 262 263 263 261 259 259 257 254 255 255 254 253 254 255 256 256 257 258 258 259 259 259
287 285 284 282 280 280 279 278 278 277 275 274 273 270 267 266 265 265 262 260 260 261 262 262 262 262 261 259 257 256 254 253 252 252 253 254 256 256 256 256 257 258 257 257
288 286 285 283 281 279 279 279 280 281 279 275 273 271 269 267 266 265 263 262 261 261 261 261 262 262 261 259 256 255 253 252 252 254 254 255 256 256 255 256 257 258 257 257
287 286 286 285 283 280 279 279 280 280 279 277 275 273 272 270 268 266 264 262 261 260 260 261 260 259 259 258 256 253 252 251 251 251 253 254 255 256 257 258 258 257 256 255
Height
5709 5709 5708 5708 5707 5706 5705 5705 5705 5707 5706 5705 5706 5707 5708 5708 5709 5710 5711 5712 5713 5714 5714 5715 5715 5716 5717 5718 5719 5720 5721 5722 5723 5723 5724 5725 5726 5727 5728 5730 5731 5733 5735 5737
5699 5699 5699 5697 5696 5695 5694 5694 5695 5695 5695 5695 5695 5697 5698 5699 5700 5701 5702 5703 5704 5705 5706 5707 5707 5708 5710 5711 5711 5712 5713 5714 5715 5716 5716 5717 5718 5719 5720 5721 5723 5725 5727 5729
5689 5690 5687 5686 5685 5684 5684 5684 5684 5684 5684 5684 5684 5686 5688 5689 5690 5692 5693 5694 5695 5697 5698 5699 5699 5700 5701 5703 5703 5704 5705 5706 5707 5708 5708 5709 5710 5711 5712 5713 5714 5716 5718 5720
5678 5678 5676 5675 5674 5673 5674 5675 5674 5673 5672 5673 5674 5674 5679 5680 5680 5682 5683 5685 5686 5688 5689 5690 5691 5692 5693 5694 5695 5696 5697 5698 5699 5700 5700 5701 5702 5703 5704 5705 5706 5708 5710 5712
5668 5667 5665 5664 5664 5663 5663 5663 5663 5662 5661 5662 5663 5664 5669 5669 5670 5672 5674 5675 5677 5679 5680 5681 5682 5683 5684 5685 5686 5687 5688 5689 5690 5691 5692 5693 5694 5695 5696 5697 5698 5700 5701 5703
5657 5656 5654 5654 5653 5652 5652 5652 5652 5651 5650 5651 5655 5654 5657 5659 5661 5662 5664 5666 5667 5669 5671 5672 5673 5674 5675 5676 5677 5679 5679 5680 5681 5682 5683 5684 5685 5687 5688 5688 5690 5691 5693 5694
5647 5646 5644 5643 5643 5642 5642 5642 5641 5639 5639 5642 5645 5644 5647 5649 5651 5653 5655 5656 5658 5660 5661 5663 5664 5665 5666 5668 5669 5670 5670 5671 5672 5673 5674 5675 5677 5678 5679 5680 5681 5683 5684 5686
5637 5636 5634 5633 5632 5631 5631 5632 5632 5631 5631 5633 5634 5634 5638 5640 5641 5642 5645 5647 5648 5650 5652 5653 5655 5656 5657 5659 5660 5661 5662 5662 5663 5664 5665 5666 5668 5669 5670 5671 5673 5674 5675 5676
5626 5626 5625 5623 5622 5622 5621 5621 5622 5622 5621 5622 5623 5625 5628 5630 5631 5633 5634 5636 5638 5640 5642 5643 5645 5646 5648 5649 5651 5652 5653 5654 5654 5655 5656 5657 5658 5659 5661 5662 5663 5664 5665 5667
5615 5615 5615 5613 5613 5612 5612 5612 5613 5612 5612 5612 5614 5616 5618 5620 5621 5623 5624 5626 5628 5630 5631 5633 5635 5636 5638 5639 5641 5642 5643 5645 5645 5646 5647 5648 5649 5650 5651 5652 5653 5654 5656 5657
5605 5604 5604 5603 5603 5602 5602 5603 5602 5603 5603 5604 5604 5609 5609 5610 5611 5613 5614 5615 5617 5619 5621 5623 5625 5626 5628 5629 5631 5632 5633 5635 5636 5636 5637 5638 5639 5640 5641 5642 5643 5644 5645 5646
5596 5595 5594 5594 5593 5592 5591 5592 5592 5593 5594 5594 5594 5599 5599 5600 5601 5602 5604 5605 5607 5608 5610 5612 5613 5615 5617 5618 5620 5621 5623 5624 5625 5626 5627 5628 5629 5630 5631 5632 5633 5634 5635 5636
5588 5586 5584 5584 5586 5584 5582 5582 5582 5582 5583 5584 5584 5589 5589 5590 5591 5592 5593 5594 5596 5597 5599 5601 5602 5604 5605 5607 5609 5611 5612 5614 5615 5616 5617 5618 5619 5620 5621 5622 5622 5623 5624 5625
5578 5576 5576 5575 5573 5572 5572 5573 5572 5572 5572 5573 5574 5577 5579 5579 5580 5581 5582 5583 5584 5586 5587 5589 5591 5593 5594 5596 5598 5600 5601 5603 5604 5605 5607 5608 5609 5609 5610 5611 5612 5613 5613 5614
5569 5568 5566 5565 5563 5562 5562 5562 5562 5562 5562 5562 5564 5566 5567 5568 5569 5570 5571 5572 5573 5574 5575 5577 5579 5581 5583 5585 5587 5589 5590 5592 5593 5594 5596 5597 5598 5598 5599 5600 5601 5602 5602 5603
5560 5558 5557 5556 5554 5552 5552 5552 5552 5551 5551 5551 5552 5554 5555 5557 5558 5559 5560 5561 5562 5562 5564 5565 5567 5569 5571 5573 5575 5577 5579 5580 5581 5583 5584 5585 5586 5587 5588 5589 5590 5590 5591 5591
5551 5549 5547 5546 5545 5542 5542 5543 5541 5541 5541 5541 5541 5544 5544 5545 5547 5548 5549 5549 5550 5551 5552 5554 5556 5558 5560 5562 5564 5566 5567 5569 5570 5572 5573 5574 5575 5576 5576 5577 5578 5579 5580 5580
5542 5540 5537 5536 5535 5533 5536 5532 5531 5530 5530 5530 5530 5531 5532 5534 5535 5536 5537 5538 5539 5540 5541 5542 5544 5546 5548 5550 5552 5554 5556 5557 5559 5560 5561 5562 5563 5564 5565 5566 5567 5567 5568 5569
5533 5530 5528 5526 5524 5524 5524 5522 5521 5520 5520 5520 5520 5521 5522 5522 5524 5525 5526 5527 5528 5529 5530 5531 5533 5535 5537 5539 5541 5543 5544 5546 5548 5549 5550 5551 5552 5553 5554 5555 5556 5556 5557 5558
5524 5521 5520 5517 5515 5514 5516 5514 5512 5512 5511 5511 5510 5511 5511 5512 5514 5516 5516 5516 5517 5518 5519 5520 5522 5524 5526 5528 5529 5531 5533 5535 5537 5538 5539 5540 5541 5542 5543 5544 5545 5545 5546 5547
5515 5512 5510 5508 5506 5505 5505 5504 5504 5504 5503 5501 5500 5500 5501 5501 5502 5504 5505 5506 5507 5508 5509 5510 5511 5513 5515 5516 5518 5520 5522 5524 5525 5527 5528 5530 5531 5532 5532 5533 5534 5535 5536 5537
5506 5504 5502 5500 5498 5500 5497 5495 5495 5494 5492 5491 5491 5491 5491 5491 5492 5493 5494 5495 5496 5497 5498 5499 5500 5502 5504 5505 5507 5509 5511 5513 5514 5516 5517 5519 5520 5521 5522 5523 5524 5524 5526 5527
5498 5496 5493 5492 5493 5490 5488 5487 5485 5484 5483 5483 5482 5482 5481 5482 5482 5483 5484 5485 5487 5488 5489 5489 5490 5491 5493 5494 5496 5498 5500 5502 5503 5505 5506 5508 5509 5510 5511 5513 5514 5515 5516 5517
5490 5488 5486 5484 5484 5482 5480 5478 5477 5476 5475 5474 5473 5472 5472 5472 5473 5473 5474 5475 5477 5478 5479 5479 5480 5481 5482 5483 5485 5487 5489 5491 5492 5494 5496 5497 5498 5500 5501 5503 5504 5505 5506 5507
5483 5480 5478 5477 5476 5474 5473 5471 5469 5468 5466 5465 5464 5464 5463 5463 5463 5464 5465 5466 5467 5468 5469 5470 5470 5471 5472 5473 5474 5476 5478 5480 5482 5484 5485 5487 5488 5490 5491 5493 5494 5495 5496 5497
5475 5473 5471 5469 5468 5466 5465 5463 5461 5460 5458 5457 5456 5455 5454 5453 5454 5454 5455 5456 5457 5458 5459 5460 5461 5461 5462 5463 5465 5466 5468 5470 5472 5474 5476 5478 5479 5481 5482 5483 5484 5485 5487 5488